TimeCST,TemperatureF,Dew PointF,Humidity,Sea Level PressureIn,VisibilityMPH,Wind Direction,Wind SpeedMPH,Gust SpeedMPH,PrecipitationIn,Events,Conditions,WindDirDegrees,DateUTC
12:15 AM,12.2,6.8,79,30.18,10.0,SE,5.8,-,N/A,,Scattered Clouds,140,2013-01-22 06:15:00
12:35 AM,11.3,6.4,81,30.17,10.0,SSE,5.8,-,N/A,,Mostly Cloudy,150,2013-01-22 06:35:00
12:55 AM,10.9,6.1,81,30.16,10.0,SSE,4.6,-,N/A,,Scattered Clouds,150,2013-01-22 06:55:00
1:15 AM,11.1,6.1,80,30.16,10.0,Calm,Calm,-,N/A,,Scattered Clouds,0,2013-01-22 07:15:00
1:55 AM,12.0,6.4,78,30.14,10.0,SE,5.8,-,N/A,,Mostly Cloudy,130,2013-01-22 07:55:00
2:15 AM,12.2,6.4,78,30.15,10.0,ESE,5.8,-,N/A,,Overcast,110,2013-01-22 08:15:00
2:35 AM,12.2,6.8,79,30.14,10.0,ESE,5.8,-,N/A,,Overcast,110,2013-01-22 08:35:00
2:55 AM,12.6,6.6,77,30.15,10.0,ESE,4.6,-,N/A,,Overcast,110,2013-01-22 08:55:00
3:15 AM,12.7,6.8,77,30.13,10.0,ESE,6.9,-,N/A,,Overcast,110,2013-01-22 09:15:00
3:35 AM,12.6,6.6,77,30.12,10.0,East,8.1,-,N/A,,Overcast,100,2013-01-22 09:35:00
3:55 AM,12.7,6.8,77,30.11,10.0,ESE,9.2,-,N/A,,Overcast,110,2013-01-22 09:55:00
4:15 AM,13.1,7.3,78,30.11,10.0,ESE,9.2,-,N/A,,Overcast,110,2013-01-22 10:15:00
4:35 AM,13.1,7.3,78,30.10,10.0,SE,9.2,-,N/A,,Overcast,130,2013-01-22 10:35:00
4:55 AM,13.5,7.7,78,30.11,10.0,ESE,10.4,-,N/A,,Overcast,110,2013-01-22 10:55:00
5:15 AM,13.6,8.1,78,30.11,10.0,ESE,8.1,-,N/A,,Overcast,110,2013-01-22 11:15:00
5:35 AM,13.6,8.2,79,30.10,10.0,SE,11.5,-,N/A,,Overcast,130,2013-01-22 11:35:00
5:55 AM,13.8,8.6,80,30.11,10.0,SE,9.2,-,N/A,,Overcast,130,2013-01-22 11:55:00
6:15 AM,14.0,9.0,80,30.10,10.0,SE,8.1,-,N/A,,Overcast,140,2013-01-22 12:15:00
6:35 AM,14.2,9.3,81,30.11,10.0,ESE,8.1,-,N/A,,Overcast,110,2013-01-22 12:35:00
6:55 AM,14.5,9.9,82,30.11,10.0,ESE,8.1,-,N/A,,Overcast,110,2013-01-22 12:55:00
7:15 AM,14.5,9.9,82,30.12,10.0,East,10.4,-,N/A,,Overcast,100,2013-01-22 13:15:00
7:35 AM,14.0,9.0,80,30.12,10.0,East,8.1,-,N/A,,Overcast,100,2013-01-22 13:35:00
7:55 AM,14.0,9.1,81,30.12,10.0,ESE,10.4,-,N/A,,Overcast,110,2013-01-22 13:55:00
8:15 AM,14.0,9.1,81,30.12,10.0,ESE,9.2,-,N/A,,Overcast,110,2013-01-22 14:15:00
8:35 AM,14.9,10.4,82,30.12,10.0,ESE,11.5,-,N/A,,Overcast,120,2013-01-22 14:35:00
8:55 AM,15.6,11.3,83,30.12,10.0,SSE,9.2,-,N/A,,Overcast,150,2013-01-22 14:55:00
9:15 AM,15.8,12.2,86,30.11,10.0,SSE,11.5,-,N/A,,Overcast,150,2013-01-22 15:15:00
9:35 AM,16.7,12.9,85,30.12,10.0,SSE,12.7,-,N/A,,Overcast,150,2013-01-22 15:35:00
9:55 AM,16.9,13.3,86,30.13,10.0,SSE,11.5,-,N/A,,Overcast,160,2013-01-22 15:55:00
10:15 AM,18.0,14.2,85,30.13,10.0,SSE,12.7,-,N/A,,Overcast,160,2013-01-22 16:15:00
10:35 AM,18.9,15.1,85,30.13,10.0,SSE,13.8,-,N/A,,Overcast,160,2013-01-22 16:35:00
10:55 AM,19.8,15.6,84,30.14,10.0,South,12.7,-,N/A,,Overcast,170,2013-01-22 16:55:00
11:15 AM,20.8,16.7,84,30.13,10.0,South,11.5,-,N/A,,Overcast,170,2013-01-22 17:15:00
11:35 AM,21.2,17.1,84,30.14,10.0,South,10.4,-,N/A,,Overcast,170,2013-01-22 17:35:00
11:55 AM,21.9,17.2,82,30.13,10.0,South,10.4,-,N/A,,Overcast,190,2013-01-22 17:55:00
12:15 PM,23.0,18.3,82,30.12,10.0,South,10.4,-,N/A,,Overcast,190,2013-01-22 18:15:00
12:35 PM,23.4,18.7,82,30.11,7.0,SSW,9.2,-,N/A,,Overcast,200,2013-01-22 18:35:00
12:55 PM,24.4,19.4,81,30.10,10.0,South,9.2,-,N/A,,Overcast,190,2013-01-22 18:55:00
1:15 PM,26.1,20.1,78,30.08,10.0,SSW,9.2,-,N/A,,Overcast,200,2013-01-22 19:15:00
1:35 PM,27.5,20.7,75,30.08,10.0,SSW,10.4,-,N/A,,Mostly Cloudy,200,2013-01-22 19:35:00
1:55 PM,28.6,20.8,73,30.07,10.0,SSW,11.5,-,N/A,,Scattered Clouds,200,2013-01-22 19:55:00
2:15 PM,29.8,20.3,68,30.05,10.0,SSW,11.5,-,N/A,,Clear,210,2013-01-22 20:15:00
2:35 PM,31.8,20.5,63,30.05,10.0,SSW,8.1,-,N/A,,Clear,210,2013-01-22 20:35:00
2:55 PM,33.6,20.8,59,30.05,10.0,WSW,10.4,-,N/A,,Clear,250,2013-01-22 20:55:00
3:15 PM,34.9,21.0,57,30.05,10.0,WSW,9.2,-,N/A,,Clear,240,2013-01-22 21:15:00
3:35 PM,35.8,21.2,55,30.05,10.0,SW,6.9,-,N/A,,Clear,230,2013-01-22 21:35:00
3:55 PM,37.0,21.4,53,30.05,10.0,SSW,5.8,-,N/A,,Clear,210,2013-01-22 21:55:00
4:15 PM,37.4,21.2,52,30.05,10.0,SSW,3.5,-,N/A,,Clear,200,2013-01-22 22:15:00
4:35 PM,37.9,21.2,51,30.05,10.0,Calm,Calm,-,N/A,,Clear,0,2013-01-22 22:35:00
4:55 PM,38.7,20.5,48,30.05,10.0,Calm,Calm,-,N/A,,Clear,0,2013-01-22 22:55:00
5:15 PM,36.9,19.8,50,30.06,10.0,West,4.6,-,N/A,,Clear,270,2013-01-22 23:15:00
5:35 PM,33.8,18.7,54,30.06,10.0,Calm,Calm,-,N/A,,Clear,0,2013-01-22 23:35:00
5:55 PM,28.0,18.0,66,30.06,10.0,SSW,4.6,-,N/A,,Clear,200,2013-01-22 23:55:00
6:15 PM,27.0,18.9,72,30.06,10.0,SSW,5.8,-,N/A,,Clear,200,2013-01-23 00:15:00
6:35 PM,27.5,19.2,71,30.05,10.0,SSW,4.6,-,N/A,,Clear,200,2013-01-23 00:35:00
6:55 PM,27.3,19.2,72,30.07,10.0,SW,4.6,-,N/A,,Clear,230,2013-01-23 00:55:00
7:15 PM,25.2,18.1,75,30.07,10.0,SW,6.9,-,N/A,,Clear,220,2013-01-23 01:15:00
7:35 PM,26.4,19.2,74,30.07,10.0,SW,5.8,-,N/A,,Clear,220,2013-01-23 01:35:00
7:55 PM,24.6,19.0,79,30.06,10.0,SW,6.9,-,N/A,,Clear,220,2013-01-23 01:55:00
8:15 PM,25.3,18.7,76,30.06,10.0,SW,5.8,-,N/A,,Clear,230,2013-01-23 02:15:00
8:35 PM,25.5,19.4,78,30.06,10.0,SW,6.9,-,N/A,,Clear,220,2013-01-23 02:35:00
8:55 PM,26.2,19.6,76,30.06,10.0,SW,8.1,-,N/A,,Clear,220,2013-01-23 02:55:00
9:15 PM,26.1,19.4,76,30.06,10.0,SW,4.6,-,N/A,,Clear,230,2013-01-23 03:15:00
9:35 PM,25.5,19.2,77,30.06,10.0,SW,6.9,-,N/A,,Clear,230,2013-01-23 03:35:00
9:55 PM,25.7,19.4,77,30.07,10.0,SW,8.1,-,N/A,,Clear,230,2013-01-23 03:55:00
10:15 PM,24.8,18.9,78,30.08,10.0,SW,6.9,-,N/A,,Clear,230,2013-01-23 04:15:00
10:35 PM,24.4,19.2,81,30.08,10.0,SW,9.2,-,N/A,,Clear,220,2013-01-23 04:35:00
10:55 PM,24.8,19.2,79,30.08,10.0,SW,10.4,-,N/A,,Clear,230,2013-01-23 04:55:00
11:15 PM,24.4,19.0,80,30.08,10.0,SW,9.2,-,N/A,,Clear,230,2013-01-23 05:15:00
11:35 PM,23.9,18.7,80,30.08,10.0,WSW,4.6,-,N/A,,Clear,240,2013-01-23 05:35:00
11:55 PM,24.1,18.3,79,30.08,10.0,WSW,6.9,-,N/A,,Clear,250,2013-01-23 05:55:00